Find Starlink 5623

NORAD ID: 55405 Int'l Des: 2023-014 Owner: SPXS Country: US Constellation: starlink operational
LEOCIRCULAR

現在のビュー

3D地球を読み込み中...

About Starlink 5623

Starlink 5623 (NORAD 55405) is a starlink constellation satellite (v1.5) launched Jan 31, 2023 by SPXS of US. It operates in LEO, CIRCULAR orbit with a mass of 305.00 kg.

次回通過

Passes for default location (London). Set your location on the main map for personalized predictions.

高度履歴

Loading altitude history...

軌道要素

1 55405U 23014Q 26228.84134890 .00000307 00000-0 33529-4 0 9992
2 55405 70.0008 20.6954 0002631 271.0004 89.0854 14.98323884196042
Epoch: Aug 16, 2026 • Age: 21 hours

現在のステータス

高度 575.1 km
遠地点 / 近地点 N/A
速度 7.57 km/s
衛星直下点 -4.70°S, 155.73°E
打ち上げ日 Jan 31, 2023
運用期間 3.5 years
タイプ internet

技術仕様

分類 Payload
質量 305.00 kg
乾燥質量 290.00 kg
総質量 305.00 kg
長さ 0.20 m
直径 2.80 m
スパン 9.00 m
形状 Box + pan
製造者 SPXS
バスタイプ Starlink
フェーズステータス In Orbit
所有者/国 SPXS/US

Most Searched